Weather in Monterrey

Mexico     25°40′53″N   100°17′49″W
В апреле 2022 года жителям России запретили посещать сайт meteo.paraplan.net по решению Генеральной прокуратуры. Аудитория сайта уменьшилась в 10 раз. Владельцы сайта не видят смысла в поддержке погодного сервера в таких условиях. Сайт будет закрыт в октябре.
temp.,
°C
wind,
m/s
gust,
m/s
humid.,
%
clouds,
%
prec.,
mm/h
press.,
hPa
HPBL,
m
30 september, fri
fri3001:00+21sse12540 0.0 101866
04:00+20sse01610 0.0 101765
07:00+19w11620 0.0 101728
10:00+24ene12470 0.0 1018407
13:00+28ese45280 0.0 10161619
16:00+29ese56260 0.0 10121781
19:00+27ese57350 0.0 1012879
22:00+23sse24450 0.0 1014160
1 october, sat
sat101:00+21ese2349100 0.0 101391
04:00+19e11650 0.0 101386
07:00+18ene117624 0.0 1014100
10:00+22e12635 0.0 1016437
13:00+27ese45455 0.0 10151393
16:00+28ese663847 0.0 10121870
19:00+26ese574459 0.0 10121049
22:00+23se2552100 0.0 1015388
2 october, sun
sun201:00+20ese366925 0.0 1016439
04:00+19ese2377100 0.0 1016285
07:00+19ene127698 0.0 1017319
10:00+21e127199 0.0 1019575
13:00+25ese3455100 0.1 10181417
16:00+25se4448100 0.0 10161587
19:00+24ese3550100 0.1 1016430
22:00+23ese1249100 0.0 1018221
3 october, mon
mon301:00+22ese2451100 0.0 1019201
04:00+21e2367100 0.0 1018345
07:00+20e117090 0.1 1018237
10:00+21e116951 0.3 1020336
13:00+24ese3453100 0.5 10191179
16:00+25e335083 0.1 10161411
19:00+23ene236393 0.5 1017511
22:00+21e127279 0.6 1019282
4 october, tue
tue401:00+20sse127831 0.6 101884
04:00+19s1183100 0.0 101753
07:00+19ssw018099 0.0 101735
10:00+22ese1268100 0.0 1018572
13:00+25e2252100 0.0 10171294
16:00+26ese3349100 0.1 10131659
19:00+25ese3455100 0.1 1014732
22:00+23sse2361100 0.0 1016169